Regional Weather Roundup
Issued by NWS Midland/Odessa, TX

Skip options and go directly to product.
Home | Oldest Version | Previous Version | Current Version | All | Text Only | Save Text | Print | Product List | Glossary On

Skip product version selection by date and time.   
584
ASUS44 KMAF 271110
RWRMAF
MIDLAND AREA WEATHER ROUNDUP
NATIONAL WEATHER SERVICE MIDLAND TX
600 AM CDT WED JUL 27 2016

...IN SOUTHWEST TEXAS AND SOUTHEAST NEW MEXICO...

CITY           SKY/WX    TMP DP  RH WIND       PRES   REMARKS
ALPINE         CLOUDY    69  64  82 CALM      30.17R
ANDREWS        FAIR      71  69  95 CALM      30.06R
ARTESIA        CLEAR     75  63  64 CALM      30.06R
BIG SPRING     CLEAR     73  68  84 CALM      30.05R
CARLSBAD       CLOUDY    72  65  78 SE5       30.03R
DRYDEN           N/A     72  70  93 VRB5      29.99R
FORT STOCKTON  CLEAR     71  67  87 SE5       30.03R
GUAD PASS      CLOUDY    71  57  61 W7        30.19R
HOBBS          CLEAR     68  64  88 CALM      30.08R
MARFA          CLOUDY    69  60  73 NW3       30.16R
MIDLAND AIRPK  CLEAR     74  69  83 CALM      30.04R
MIDLAND INTL   CLEAR     73  69  87 SW3       30.03R
ODESSA         CLEAR     73  68  84 CALM      30.05R
PECOS          CLOUDY    74  66  77 E3        30.02R
PRESIDIO       FAIR      80  63  55 N3        29.99R
SEMINOLE       CLEAR     67  63  86 CALM      30.07R
SNYDER           N/A     72  66  81 S5        30.01R
WINK           CLEAR     71  68  90 NE3       30.02R
$$
...OTHER STATIONS IN TEXAS...

CITY           SKY/WX    TMP DP  RH WIND       PRES   REMARKS
ABILENE        CLEAR     76  68  76 S3        29.99R
AMARILLO       PTCLDY    68  65  90 CALM      30.09R
AUSTIN         PTCLDY    74  74 100 CALM      29.93S THUNDER
BROWNSVILLE    PTCLDY    80  78  94 S8        29.90R
CORPUS CHRISTI CLOUDY    82  79  90 S9        29.90R
DALLAS FTW     MOCLDY    81  73  76 SE3       29.93R
DEL RIO        CLEAR     73  73 100 E6        29.93R
EL PASO        CLOUDY    75  65  70 CALM      30.12R
HOUSTON INT    CLOUDY    79  75  87 CALM      29.94R
LUBBOCK        PTCLDY    69  61  75 CALM      30.05R
SAN ANGELO     CLEAR     71  66  84 S3        29.98R
SAN ANTONIO    CLOUDY    77  72  84 CALM      29.95R
WACO           CLEAR     77  72  84 S7        29.93S
WICHITA FALLS  NOT AVBL
$$
...OTHER LOCATIONS IN NEW MEXICO...

CITY           SKY/WX    TMP DP  RH WIND       PRES   REMARKS
ALAMAGORDO     CLOUDY    68  66  94 W6        30.13R
ALBUQUERQUE    CLOUDY    69  60  73 S7        30.20S
CANNON AFB     CLEAR     71  64  80 W6        30.11R
CLOVIS         CLEAR     66  57  72 CALM      30.11R
HOLLOMAN AFB   LGT RAIN  70  65  84 W10       30.10S
ROSWELL        PTCLDY    73  63  70 CALM      30.06R
RUIDOSO          N/A     59  54  82 CALM      30.30S
SANTA FE       CLOUDY    65  56  72 CALM      30.26R
TRUTH OR CONSE CLOUDY    73  58  59 W5        30.16S
TUCUMCARI      CLEAR     70  63  78 W6        30.08R
$$

USA.gov is the U.S. government's official web portal to all federal, state and local government web resources and services.